When you browse on this site, cookies collect data to enhance your experience and personalize the content and advertising you see.
Visit our Privacy Policy to learn more. By continuing to use the site, you agree to this use of cookies and data.
  • In Romania
  • List of Countries
  • For 7 days
  • Water Temperature
  • Satellite Maps
  • Weather Map
  • Weather Widgets
  • user-avatar
    Login

    Hourly Weather Canberra

    Today, 21 April, Sunday

    Time Temperature Precipitation Wind Pressure Humidity
    00:00 +15°C° 0 mm 1 mps 715 mmHg 95%
    01:00 +15°C° 0 mm 1 mps 715 mmHg 96%
    02:00 +15°C° 0 mm 1 mps 715 mmHg 96%
    03:00 +15°C° 0 mm 1 mps 715 mmHg 95%
    04:00 +15°C° 0 mm 1 mps 714 mmHg 97%
    05:00 +15°C° 0 mm 1 mps 714 mmHg 96%
    06:00 +14°C° 0 mm 0 mps 714 mmHg 96%
    07:00 +14°C° 0 mm 0 mps 714 mmHg 95%
    08:00 +16°C° 0 mm 0 mps 715 mmHg 83%
    09:00 +21°C° 0 mm 1 mps 715 mmHg 71%
    10:00 +23°C° 0 mm 1 mps 716 mmHg 59%
    11:00 +24°C° 0 mm 1 mps 715 mmHg 55%
    12:00 +25°C° 0 mm 2 mps 715 mmHg 51%
    13:00 +26°C° 0 mm 2 mps 715 mmHg 47%
    14:00 +26°C° 0 mm 2 mps 714 mmHg 48%
    15:00 +25°C° 0 mm 2 mps 714 mmHg 49%
    16:00 +25°C° 0 mm 2 mps 714 mmHg 49%
    17:00 +23°C° 0 mm 1 mps 714 mmHg 57%
    18:00 +21°C° 0 mm 1 mps 714 mmHg 65%
    19:00 +17°C° 0 mm 0 mps 714 mmHg 72%
    20:00 +17°C° 0 mm 0 mps 714 mmHg 75%
    21:00 +18°C° 0 mm 1 mps 713 mmHg 78%
    22:00 +18°C° 0 mm 1 mps 713 mmHg 81%
    23:00 +15°C° 0 mm 0 mps 713 mmHg 84%

    Tomorrow, 22 April, Monday

    Time Temperature Precipitation Wind Pressure Humidity
    00:00 +15°C° 0 mm 0 mps 713 mmHg 86%
    01:00 +14°C° 0 mm 0 mps 713 mmHg 88%
    02:00 +15°C° 0.2 mm 1 mps 713 mmHg 88%
    03:00 +16°C° 0.2 mm 1 mps 713 mmHg 88%
    04:00 +16°C° 0.2 mm 1 mps 713 mmHg 88%
    05:00 +16°C° 0 mm 1 mps 713 mmHg 88%
    06:00 +16°C° 0 mm 1 mps 714 mmHg 89%
    07:00 +16°C° 0 mm 1 mps 714 mmHg 89%
    08:00 +19°C° 0 mm 1 mps 714 mmHg 78%
    09:00 +21°C° 0 mm 1 mps 715 mmHg 68%
    10:00 +24°C° 0 mm 1 mps 716 mmHg 57%
    11:00 +24°C° 0.3 mm 1 mps 715 mmHg 56%
    12:00 +25°C° 0.3 mm 1 mps 715 mmHg 54%
    13:00 +25°C° 0.3 mm 1 mps 715 mmHg 53%
    14:00 +24°C° 0.6 mm 1 mps 715 mmHg 58%
    15:00 +24°C° 0.6 mm 2 mps 715 mmHg 63%
    16:00 +23°C° 0.6 mm 2 mps 714 mmHg 67%
    17:00 +20°C° 0.3 mm 2 mps 715 mmHg 76%
    18:00 +18°C° 0.3 mm 2 mps 715 mmHg 84%
    19:00 +17°C° 0.3 mm 3 mps 716 mmHg 93%
    20:00 +16°C° 0.1 mm 3 mps 716 mmHg 94%
    21:00 +16°C° 0.1 mm 3 mps 716 mmHg 94%
    22:00 +16°C° 0.1 mm 3 mps 716 mmHg 95%
    23:00 +16°C° 0 mm 2 mps 716 mmHg 95%

    Day after tomorrow, 23 April, Tuesday

    Time Temperature Precipitation Wind Pressure Humidity
    00:00 +15°C° 0 mm 2 mps 716 mmHg 95%
    01:00 +15°C° 0 mm 2 mps 716 mmHg 95%
    02:00 +15°C° 0 mm 2 mps 716 mmHg 94%
    03:00 +16°C° 0 mm 2 mps 716 mmHg 93%
    04:00 +16°C° 0 mm 2 mps 716 mmHg 91%
    05:00 +15°C° 0 mm 2 mps 716 mmHg 93%
    06:00 +15°C° 0 mm 2 mps 717 mmHg 94%
    07:00 +14°C° 0 mm 2 mps 717 mmHg 96%
    08:00 +15°C° 0 mm 2 mps 717 mmHg 90%
    09:00 +17°C° 0 mm 2 mps 717 mmHg 85%
    10:00 +18°C° 0 mm 2 mps 718 mmHg 79%
    11:00 +19°C° 0 mm 2 mps 717 mmHg 75%
    12:00 +19°C° 0 mm 2 mps 717 mmHg 71%
    13:00 +20°C° 0 mm 2 mps 717 mmHg 67%
    14:00 +20°C° 0 mm 2 mps 716 mmHg 65%
    15:00 +20°C° 0 mm 2 mps 716 mmHg 62%
    16:00 +21°C° 0 mm 2 mps 716 mmHg 60%
    17:00 +19°C° 0 mm 2 mps 716 mmHg 70%
    18:00 +18°C° 0 mm 1 mps 716 mmHg 80%
    19:00 +15°C° 0 mm 1 mps 716 mmHg 90%
    20:00 +14°C° 0 mm 1 mps 716 mmHg 92%
    21:00 +14°C° 0 mm 1 mps 716 mmHg 94%
    22:00 +14°C° 0 mm 1 mps 717 mmHg 95%
    23:00 +14°C° 0 mm 1 mps 716 mmHg 94%

    24 April, Wednesday

    Time Temperature Precipitation Wind Pressure Humidity
    00:00 +14°C° 0 mm 1 mps 716 mmHg 94%
    01:00 +15°C° 0 mm 1 mps 716 mmHg 93%
    02:00 +14°C° 0 mm 1 mps 716 mmHg 94%
    03:00 +14°C° 0 mm 1 mps 715 mmHg 95%
    04:00 +13°C° 0 mm 1 mps 715 mmHg 96%
    05:00 +13°C° 0 mm 1 mps 715 mmHg 96%
    06:00 +13°C° 0 mm 1 mps 716 mmHg 96%
    07:00 +12°C° 0 mm 0 mps 716 mmHg 95%
    08:00 +16°C° 0 mm 1 mps 716 mmHg 84%
    09:00 +19°C° 0 mm 1 mps 717 mmHg 73%
    10:00 +22°C° 0 mm 1 mps 717 mmHg 61%
    11:00 +23°C° 0 mm 2 mps 716 mmHg 58%
    12:00 +24°C° 0 mm 2 mps 716 mmHg 54%
    13:00 +25°C° 0 mm 3 mps 715 mmHg 50%
    14:00 +24°C° 0 mm 3 mps 715 mmHg 52%
    15:00 +24°C° 0 mm 3 mps 714 mmHg 53%
    16:00 +24°C° 0 mm 3 mps 714 mmHg 55%
    17:00 +21°C° 0 mm 2 mps 714 mmHg 63%
    18:00 +19°C° 0 mm 2 mps 714 mmHg 71%
    19:00 +17°C° 0 mm 2 mps 714 mmHg 79%
    20:00 +16°C° 0 mm 1 mps 714 mmHg 82%
    21:00 +16°C° 0 mm 1 mps 714 mmHg 85%
    22:00 +15°C° 0 mm 1 mps 714 mmHg 87%
    23:00 +15°C° 0 mm 1 mps 714 mmHg 88%

    25 April, Thursday

    Time Temperature Precipitation Wind Pressure Humidity
    00:00 +14°C° 0 mm 1 mps 713 mmHg 88%
    01:00 +14°C° 0 mm 1 mps 713 mmHg 88%
    02:00 +14°C° 0 mm 1 mps 713 mmHg 89%
    03:00 +13°C° 0 mm 1 mps 713 mmHg 89%
    04:00 +13°C° 0 mm 1 mps 712 mmHg 89%
    05:00 +13°C° 0 mm 1 mps 713 mmHg 90%
    06:00 +12°C° 0 mm 1 mps 713 mmHg 90%
    07:00 +12°C° 0 mm 1 mps 713 mmHg 90%
    08:00 +15°C° 0 mm 1 mps 714 mmHg 74%
    09:00 +18°C° 0 mm 2 mps 714 mmHg 57%
    10:00 +21°C° 0 mm 2 mps 715 mmHg 40%
    11:00 +22°C° 0 mm 3 mps 714 mmHg 37%
    12:00 +24°C° 0 mm 3 mps 714 mmHg 33%
    13:00 +25°C° 0 mm 3 mps 713 mmHg 29%
    14:00 +23°C° 0 mm 4 mps 713 mmHg 32%
    15:00 +22°C° 0 mm 4 mps 712 mmHg 35%
    16:00 +22°C° 0 mm 4 mps 712 mmHg 37%
    17:00 +20°C° 0 mm 3 mps 712 mmHg 45%
    18:00 +17°C° 0 mm 3 mps 712 mmHg 52%
    19:00 +15°C° 0 mm 2 mps 712 mmHg 60%
    20:00 +14°C° 0 mm 2 mps 712 mmHg 61%
    21:00 +13°C° 0 mm 2 mps 712 mmHg 63%
    22:00 +13°C° 0 mm 2 mps 712 mmHg 65%
    23:00 +12°C° 0 mm 2 mps 711 mmHg 65%

    26 April, Friday

    Time Temperature Precipitation Wind Pressure Humidity
    00:00 +12°C° 0 mm 2 mps 711 mmHg 64%
    01:00 +12°C° 0 mm 2 mps 710 mmHg 64%
    02:00 +10°C° 0 mm 2 mps 710 mmHg 65%
    03:00 +10°C° 0 mm 2 mps 710 mmHg 66%
    04:00 +10°C° 0 mm 3 mps 709 mmHg 67%
    05:00 +10°C° 0 mm 3 mps 709 mmHg 67%
    06:00 +10°C° 0 mm 3 mps 710 mmHg 68%
    07:00 +10°C° 0 mm 3 mps 710 mmHg 68%
    08:00 +12°C° 0 mm 5 mps 710 mmHg 61%
    09:00 +14°C° 0 mm 6 mps 710 mmHg 55%
    10:00 +16°C° 0 mm 7 mps 710 mmHg 48%
    11:00 +17°C° 0 mm 7 mps 710 mmHg 45%
    12:00 +17°C° 0 mm 7 mps 710 mmHg 42%
    13:00 +18°C° 0 mm 7 mps 709 mmHg 40%
    14:00 +17°C° 0 mm 7 mps 709 mmHg 43%
    15:00 +15°C° 0 mm 6 mps 709 mmHg 47%
    16:00 +14°C° 0 mm 5 mps 709 mmHg 50%
    17:00 +13°C° 0 mm 4 mps 710 mmHg 58%
    18:00 +11°C° 0 mm 3 mps 711 mmHg 65%
    19:00 +9°C° 0 mm 2 mps 711 mmHg 72%
    20:00 +8°C° 0 mm 2 mps 712 mmHg 75%
    21:00 +7°C° 0 mm 2 mps 712 mmHg 77%
    22:00 +8°C° 0 mm 1 mps 713 mmHg 80%
    23:00 +7°C° 0 mm 1 mps 713 mmHg 81%
    Show more